SDA129 NZMC-NZWF

Flight info

Callsign SDA129
Flight time 0h 38m
Altitude 8000
Route NZUK DCT NZOA DCT 4437S16932E DCT ARIGU
Aircraft C208/L-SDFGRY/C

Departure

Time 2026-04-22 19:39
Airport Mount Cook Airport (NZMC)

Arrival

Time 2026-04-22 20:17
Airport Wanaka Airport (NZWF)
Time Latitude Longitude Altitude Speed Heading
2026-04-22 19:31 -43.76584 170.13269 2142 ft 0 kts 156°
2026-04-22 19:35 -43.76586 170.13277 2142 ft 4 kts 68°
2026-04-22 19:36 -43.76518 170.13264 2142 ft 17 kts 355°
2026-04-22 19:36 -43.76433 170.13362 2144 ft 19 kts 338°
2026-04-22 19:36 -43.76277 170.13269 2141 ft 30 kts 328°
2026-04-22 19:36 -43.76096 170.13155 2140 ft 21 kts 335°
2026-04-22 19:37 -43.76054 170.13119 2139 ft 0 kts 208°
2026-04-22 19:37 -43.76055 170.13119 2139 ft 1 kts 201°
2026-04-22 19:37 -43.76087 170.13138 2139 ft 14 kts 155°
2026-04-22 19:37 -43.76358 170.13305 2143 ft 69 kts 156°
2026-04-22 19:38 -43.76926 170.13663 2228 ft 101 kts 156°
2026-04-22 19:38 -43.77636 170.14095 2321 ft 122 kts 157°
2026-04-22 19:38 -43.78450 170.14533 2461 ft 130 kts 164°
2026-04-22 19:38 -43.79347 170.14858 2589 ft 132 kts 168°
2026-04-22 19:39 -43.80241 170.15023 2724 ft 130 kts 175°
2026-04-22 19:39 -43.81138 170.14982 2865 ft 129 kts 188°
2026-04-22 19:39 -43.82029 170.14871 3011 ft 128 kts 185°
2026-04-22 19:39 -43.82916 170.14796 3158 ft 128 kts 184°
2026-04-22 19:40 -43.83802 170.14729 3307 ft 127 kts 184°
2026-04-22 19:40 -43.84694 170.14664 3458 ft 129 kts 184°
2026-04-22 19:40 -43.85598 170.14599 3611 ft 130 kts 184°
2026-04-22 19:40 -43.86504 170.14535 3768 ft 131 kts 184°
2026-04-22 19:41 -43.87420 170.14471 3916 ft 132 kts 184°
2026-04-22 19:41 -43.88336 170.14408 4068 ft 132 kts 184°
2026-04-22 19:41 -43.89256 170.14343 4219 ft 132 kts 184°
2026-04-22 19:41 -43.90164 170.14281 4362 ft 131 kts 184°
2026-04-22 19:42 -43.91076 170.14219 4516 ft 131 kts 183°
2026-04-22 19:42 -43.91985 170.14156 4664 ft 130 kts 183°
2026-04-22 19:42 -43.92884 170.14095 4831 ft 129 kts 184°
2026-04-22 19:42 -43.93776 170.14034 5000 ft 128 kts 184°
2026-04-22 19:43 -43.95549 170.13909 5345 ft 126 kts 184°
2026-04-22 19:43 -43.96428 170.13850 5519 ft 126 kts 184°
2026-04-22 19:43 -43.97304 170.13787 5688 ft 126 kts 184°
2026-04-22 19:44 -43.98176 170.13728 5866 ft 125 kts 184°
2026-04-22 19:44 -43.99029 170.13668 6036 ft 124 kts 184°
2026-04-22 19:44 -43.99892 170.13609 6209 ft 124 kts 183°
2026-04-22 19:44 -44.00753 170.13549 6383 ft 124 kts 183°
2026-04-22 19:45 -44.01615 170.13490 6558 ft 124 kts 183°
2026-04-22 19:45 -44.02471 170.13431 6725 ft 124 kts 184°
2026-04-22 19:45 -44.03335 170.13370 6907 ft 124 kts 183°
2026-04-22 19:45 -44.04198 170.13311 7084 ft 125 kts 183°
2026-04-22 19:46 -44.05067 170.13249 7260 ft 125 kts 183°
2026-04-22 19:46 -44.05939 170.13189 7439 ft 125 kts 183°
2026-04-22 19:46 -44.06810 170.13129 7612 ft 126 kts 183°
2026-04-22 19:46 -44.07685 170.13067 7786 ft 125 kts 183°
2026-04-22 19:47 -44.08552 170.13007 7959 ft 124 kts 183°
2026-04-22 19:47 -44.09413 170.12947 8132 ft 123 kts 183°
2026-04-22 19:47 -44.10266 170.12887 8306 ft 123 kts 183°
2026-04-22 19:47 -44.11132 170.12828 8376 ft 131 kts 183°
2026-04-22 19:48 -44.12068 170.12759 8388 ft 138 kts 183°
2026-04-22 19:48 -44.13043 170.12692 8387 ft 142 kts 183°
2026-04-22 19:48 -44.14043 170.12620 8385 ft 144 kts 183°
2026-04-22 19:48 -44.15047 170.12552 8386 ft 144 kts 183°
2026-04-22 19:49 -44.16044 170.12483 8386 ft 144 kts 183°
2026-04-22 19:49 -44.17049 170.12414 8386 ft 144 kts 183°
2026-04-22 19:49 -44.18046 170.12344 8385 ft 145 kts 183°
2026-04-22 19:49 -44.19053 170.12272 8387 ft 145 kts 183°
2026-04-22 19:50 -44.20064 170.12201 8387 ft 145 kts 183°
2026-04-22 19:50 -44.21071 170.12131 8387 ft 145 kts 183°
2026-04-22 19:50 -44.22082 170.12061 8386 ft 145 kts 183°
2026-04-22 19:50 -44.23088 170.11991 8385 ft 144 kts 183°
2026-04-22 19:51 -44.24053 170.11722 8383 ft 144 kts 201°
2026-04-22 19:51 -44.24982 170.11196 8383 ft 144 kts 200°
2026-04-22 19:51 -44.25919 170.10701 8385 ft 145 kts 200°
2026-04-22 19:51 -44.26862 170.10202 8386 ft 145 kts 200°
2026-04-22 19:52 -44.27808 170.09699 8387 ft 146 kts 200°
2026-04-22 19:52 -44.28756 170.09196 8385 ft 146 kts 200°
2026-04-22 19:52 -44.29706 170.08692 8385 ft 146 kts 200°
2026-04-22 19:52 -44.30654 170.08187 8384 ft 146 kts 200°
2026-04-22 19:53 -44.31603 170.07682 8385 ft 146 kts 200°
2026-04-22 19:53 -44.32554 170.07177 8384 ft 145 kts 200°
2026-04-22 19:53 -44.33501 170.06674 8384 ft 146 kts 200°
2026-04-22 19:53 -44.34445 170.06170 8383 ft 146 kts 200°
2026-04-22 19:54 -44.35392 170.05666 8383 ft 146 kts 200°
2026-04-22 19:54 -44.36331 170.05166 8382 ft 145 kts 200°
2026-04-22 19:54 -44.37273 170.04665 8382 ft 145 kts 200°
2026-04-22 19:54 -44.38218 170.04160 8383 ft 146 kts 200°
2026-04-22 19:55 -44.39167 170.03653 8379 ft 146 kts 200°
2026-04-22 19:55 -44.40110 170.03148 8379 ft 145 kts 200°
2026-04-22 19:55 -44.41053 170.02650 8381 ft 145 kts 200°
2026-04-22 19:55 -44.42000 170.02143 8381 ft 146 kts 200°
2026-04-22 19:56 -44.42950 170.01635 8382 ft 146 kts 200°
2026-04-22 19:56 -44.43903 170.01126 8383 ft 147 kts 200°
2026-04-22 19:56 -44.44858 170.00616 8382 ft 146 kts 200°
2026-04-22 19:56 -44.45796 170.00115 8382 ft 146 kts 200°
2026-04-22 19:57 -44.46747 169.99606 8381 ft 146 kts 200°
2026-04-22 19:57 -44.47698 169.99098 8380 ft 146 kts 200°
2026-04-22 19:57 -44.48568 169.98400 8374 ft 146 kts 224°
2026-04-22 19:57 -44.49077 169.97159 8376 ft 148 kts 246°
2026-04-22 19:58 -44.49452 169.95817 8376 ft 148 kts 245°
2026-04-22 19:58 -44.49943 169.94576 8368 ft 146 kts 223°
2026-04-22 19:58 -44.50719 169.93674 8371 ft 145 kts 218°
2026-04-22 19:58 -44.51478 169.92743 8372 ft 145 kts 220°
2026-04-22 19:59 -44.52221 169.91782 8373 ft 145 kts 221°
2026-04-22 20:00 -44.56634 169.85970 8373 ft 145 kts 221°
2026-04-22 20:00 -44.57339 169.85039 8371 ft 146 kts 221°
2026-04-22 20:01 -44.58078 169.84063 8372 ft 145 kts 221°
2026-04-22 20:01 -44.58815 169.83092 8373 ft 145 kts 221°
2026-04-22 20:01 -44.59552 169.82120 8370 ft 145 kts 221°
2026-04-22 20:01 -44.60288 169.81144 8374 ft 146 kts 221°
2026-04-22 20:02 -44.61027 169.80168 8369 ft 145 kts 221°
2026-04-22 20:02 -44.61753 169.79204 8376 ft 143 kts 221°
2026-04-22 20:02 -44.62485 169.78238 8379 ft 145 kts 221°
2026-04-22 20:02 -44.63225 169.77262 8375 ft 146 kts 221°
2026-04-22 20:03 -44.63959 169.76287 8376 ft 145 kts 222°
2026-04-22 20:03 -44.64681 169.75330 8378 ft 147 kts 223°
2026-04-22 20:03 -44.65423 169.74346 8379 ft 147 kts 223°
2026-04-22 20:03 -44.66171 169.73355 8383 ft 148 kts 223°
2026-04-22 20:04 -44.66924 169.72360 8332 ft 150 kts 223°
2026-04-22 20:04 -44.67642 169.71416 8138 ft 134 kts 221°
2026-04-22 20:04 -44.68300 169.70554 7935 ft 126 kts 221°
2026-04-22 20:04 -44.68927 169.69727 7737 ft 122 kts 221°
2026-04-22 20:05 -44.69539 169.68919 7546 ft 120 kts 221°
2026-04-22 20:05 -44.70142 169.68117 7360 ft 118 kts 222°
2026-04-22 20:05 -44.70740 169.67321 7181 ft 118 kts 222°
2026-04-22 20:05 -44.71335 169.66529 7002 ft 118 kts 222°
2026-04-22 20:06 -44.71931 169.65737 6824 ft 117 kts 222°
2026-04-22 20:06 -44.72523 169.64952 6647 ft 117 kts 222°
2026-04-22 20:06 -44.73104 169.64178 6473 ft 116 kts 222°
2026-04-22 20:06 -44.73691 169.63398 6297 ft 116 kts 222°
2026-04-22 20:07 -44.74278 169.62616 6122 ft 116 kts 223°
2026-04-22 20:07 -44.74866 169.61834 5946 ft 116 kts 223°
2026-04-22 20:07 -44.75452 169.61053 5772 ft 116 kts 223°
2026-04-22 20:07 -44.76034 169.60265 5598 ft 116 kts 225°
2026-04-22 20:08 -44.76594 169.59444 5422 ft 116 kts 225°
2026-04-22 20:08 -44.77167 169.58613 5290 ft 123 kts 226°
2026-04-22 20:08 -44.77789 169.57696 5293 ft 136 kts 226°
2026-04-22 20:08 -44.78464 169.56710 5289 ft 142 kts 226°
2026-04-22 20:09 -44.79155 169.55708 5289 ft 143 kts 226°
2026-04-22 20:09 -44.79854 169.54699 5288 ft 144 kts 226°
2026-04-22 20:09 -44.80548 169.53697 5285 ft 145 kts 225°
2026-04-22 20:09 -44.81249 169.52684 5286 ft 144 kts 225°
2026-04-22 20:10 -44.81952 169.51671 5285 ft 145 kts 225°
2026-04-22 20:10 -44.82655 169.50656 5285 ft 145 kts 225°
2026-04-22 20:10 -44.83357 169.49643 5284 ft 144 kts 225°
2026-04-22 20:10 -44.84057 169.48629 5286 ft 145 kts 225°
2026-04-22 20:11 -44.84761 169.47610 5283 ft 145 kts 225°
2026-04-22 20:11 -44.85460 169.46599 5284 ft 145 kts 225°
2026-04-22 20:11 -44.86160 169.45572 5285 ft 145 kts 229°
2026-04-22 20:11 -44.86564 169.44280 5281 ft 147 kts 262°
2026-04-22 20:12 -44.86434 169.42843 5151 ft 155 kts 292°
2026-04-22 20:12 -44.85747 169.41640 4965 ft 162 kts 318°
2026-04-22 20:12 -44.85173 169.40953 4840 ft 164 kts 318°
2026-04-22 20:12 -44.84032 169.39527 4583 ft 164 kts 317°
2026-04-22 20:13 -44.83181 169.38453 4386 ft 164 kts 317°
2026-04-22 20:13 -44.82337 169.37391 4224 ft 161 kts 317°
2026-04-22 20:13 -44.81502 169.36340 4048 ft 161 kts 317°
2026-04-22 20:13 -44.80664 169.35287 3844 ft 162 kts 317°
2026-04-22 20:14 -44.79852 169.34263 3634 ft 144 kts 317°
2026-04-22 20:14 -44.79154 169.33366 3408 ft 129 kts 317°
2026-04-22 20:14 -44.78512 169.32550 3185 ft 124 kts 317°
2026-04-22 20:14 -44.77875 169.31749 2966 ft 121 kts 318°
2026-04-22 20:15 -44.77249 169.30963 2753 ft 119 kts 318°
2026-04-22 20:15 -44.76634 169.30192 2545 ft 118 kts 317°
2026-04-22 20:15 -44.76027 169.29429 2351 ft 114 kts 317°
2026-04-22 20:15 -44.75462 169.28682 2164 ft 111 kts 317°
2026-04-22 20:16 -44.74891 169.27990 1980 ft 104 kts 318°
2026-04-22 20:16 -44.74348 169.27321 1763 ft 104 kts 319°
2026-04-22 20:16 -44.73984 169.26875 1623 ft 104 kts 318°
2026-04-22 20:16 -44.73456 169.26213 1435 ft 99 kts 317°
2026-04-22 20:17 -44.72969 169.25584 1258 ft 91 kts 318°
2026-04-22 20:17 -44.72516 169.25015 1130 ft 83 kts 318°
2026-04-22 20:17 -44.72186 169.24605 1142 ft 24 kts 320°
2026-04-22 20:17 -44.72179 169.24581 1144 ft 6 kts 148°
2026-04-22 20:18 -44.72227 169.24549 1144 ft 10 kts 232°
2026-04-22 20:18 -44.72262 169.24494 1145 ft 6 kts 229°
2026-04-22 20:18 -44.72299 169.24441 1143 ft 3 kts 181°
2026-04-22 20:18 -44.72308 169.24452 1143 ft 3 kts 138°
2026-04-22 20:19 -44.72312 169.24457 1143 ft 0 kts 137°